Location: ??????????
(42.1626°N, 44.1160°E)
Time: 21:57:50
(UTC+00:00)

Cosmos 1844 Rocket - Pass Details

Date: 03 March 2021
Orbit: 826 x 843 km, 71.0° (Epoch: 18 April)

Event Time Altitude Azimuth Distance (km) Brightness Sun altitude
Rises 16:42:28 0° 334° (NNW) 3,372 6.3 -20.5°
Reaches altitude 10° 16:44:55 10° 332° (NNW) 2,435 5.6 -20.9°
Maximum altitude 16:50:28 75° 249° (WSW) 859 2.8 -21.9°
Enters shadow 16:54:15 21° 167° (SSE) 1,771 4.1 -22.6°
